map of LHR home
Great Circle Mapper logo
LHR - Airport
Location
City:  London, Middlesex, England, United Kingdom
Name:Heathrow
ICAO / IATA:EGLL / LHR

Details
Type:Airport (Aerodrome, Airfield)
Use:Public/Civil, International (customs port of entry)
Latitude:5128'39"N (51.477500)
Longitude:027'41"W (-0.461388)
Datum:WGS 1984
Elevation:83 ft (25 m)
Runways:2
Longest:12799 × 164 ft (3901 × 50 m), paved

Time
Time Zone:UTC+0 (DST+1)
Local Time:

Weather
METAR:EGLL 020620Z 04004KT 020V080 7000 FEW009 BKN011 15/13 Q1023 NOSIG
TAF:EGLL 020457Z 0206/0312 04005KT 5000 HZ SCT004 BKN005 PROB30
TEMPO 0206/0208 2500 BR SCT002 BKN003
BECMG 0208/0210 9999 NSW SCT020
TEMPO 0222/0308 7000 BKN007 PROB30 0301/0307 3500 BR SCT003 BKN004
TEMPO 0308/0310 BKN012

Related Locations
Nearby:
Farthest:CHT: 11869 mi / 19102 km
Waitangi [Tuuta], Chatham Islands, NZ

Find:

   beyond  
but within

Other Information
Maps:
NOTAMs:
Links:
Sources:

  
flag of United Kingdom
flag of England
  

Sectional Chart

Flight Planning
at skyvector.com

Satellite Image

Google Maps Satellite View

 

Copyright © 2004-2014 Karl L. Swartz. All rights reserved.
The Great Circle Mapper name and logo are trademarks of the Great Circle Mapper.
All other trademarks mentioned herein belong to their respective owners.
Please see credits for attibutions and further copyright information.

  Follow gcmap on Facebook Follow gcmap on Twitter

hCard Microformat

Geo Microformat